Weather History for KRIC - October, 2013

Change the Weather History Date:

Tuesday, October 1, 2013

  Actual Average Record
Temperature  
Mean Temperature 69 °F 65 °F  
Max Temperature 84 °F 76 °F 94 °F (1954)
Min Temperature 54 °F 54 °F 35 °F (1947)
Degree Days  
Heating Degree Days 0 3  
Month to date heating degree days 0 3  
Since 1 July heating degree days 13 32  
Cooling Degree Days 4 3  
Month to date cooling degree days 4 3  
Year to date cooling degree days 1603 1507  
Growing Degree Days 19 (Base 50)    
Moisture  
Dew Point 56 °F    
Average Humidity 63    
Maximum Humidity 86    
Minimum Humidity 40    
Precipitation  
Precipitation 0.00 in 0.10 in 1.94 in (1939)
Month to date precipitation 0.00 0.10  
Year to date precipitation 40.26 34.22  
Snow  
Snow 0.00 in 0.00 in 0.00 in (2002)
Month to date snowfall 0.0 0.0  
Since 1 July snowfall 0.0 0.0  
Snow Depth 0.00 in    
Sea Level Pressure  
Sea Level Pressure 30.06 in    
Wind  
Wind Speed 2 mph (SW)    
Max Wind Speed 7 mph    
Max Gust Speed 13 mph    
Visibility 10 miles    
Events      
T = Trace of Precipitation, MM = Missing Value Source: NWS Daily Summary

Daily Weather History Graph

Daily Weather History Graph

Search for Another Location

Airport or City:

Trip Planner

Search our weather history database for the weather conditions in past years. The results will help you decide how hot, cold, wet, or windy it might be!

Date:

Astronomy

Oct. 01, 2013 Rise Set
Actual Time 7:05 AM EDT 6:52 PM EDT
Civil Twilight 6:38 AM EDT 7:18 PM EDT
Nautical Twilight 6:08 AM EDT 7:48 PM EDT
Astronomical Twilight 5:38 AM EDT 8:18 PM EDT
Moon 3:40 AM EDT (10/1) 4:51 PM EDT (10/1)
Length of Visible Light 12h 39m
Length of Day
11h 47m
Waning Crescent, 12% of the Moon is Illuminated
Oct 1
Waning Crescent
Oct 4
New
Oct 11
First Quarter
Oct 18
Full
Oct 26
Last Quarter

Hourly Weather History & Observations

Time (EDT) Temp. Heat Index Dew Point Humidity Pressure Visibility Wind Dir Wind Speed Gust Speed Precip Events Conditions
12:54 AM 59.0 °F - 53.1 °F 81% 30.07 in 10.0 mi South 3.5 mph - N/A   Clear
1:54 AM 59.0 °F - 53.1 °F 81% 30.06 in 10.0 mi Calm Calm - N/A   Clear
2:54 AM 57.9 °F - 53.1 °F 84% 30.06 in 10.0 mi South 3.5 mph - N/A   Clear
3:54 AM 57.0 °F - 52.0 °F 83% 30.06 in 10.0 mi Calm Calm - N/A   Clear
4:54 AM 55.9 °F - 51.1 °F 84% 30.06 in 10.0 mi SSE 3.5 mph - N/A   Clear
5:54 AM 55.0 °F - 51.1 °F 86% 30.07 in 10.0 mi South 3.5 mph - N/A   Clear
6:54 AM 55.9 °F - 51.1 °F 84% 30.09 in 10.0 mi Calm Calm - N/A   Partly Cloudy
7:54 AM 57.0 °F - 53.1 °F 87% 30.11 in 10.0 mi Calm Calm - N/A   Scattered Clouds
8:54 AM 62.1 °F - 55.9 °F 80% 30.10 in 10.0 mi South 3.5 mph - N/A   Mostly Cloudy
9:54 AM 69.1 °F - 55.9 °F 63% 30.10 in 10.0 mi SSW 4.6 mph - N/A   Mostly Cloudy
10:54 AM 73.9 °F - 55.9 °F 53% 30.11 in 10.0 mi Calm Calm - N/A   Mostly Cloudy
11:54 AM 78.1 °F - 57.0 °F 48% 30.09 in 10.0 mi Calm Calm - N/A   Scattered Clouds
12:54 PM 81.0 °F 80.8 °F 55.9 °F 42% 30.08 in 10.0 mi NW 4.6 mph - N/A   Partly Cloudy
1:54 PM 82.0 °F 81.6 °F 55.9 °F 41% 30.05 in 10.0 mi SW 3.5 mph - N/A   Scattered Clouds
2:54 PM 82.9 °F 82.4 °F 57.0 °F 41% 30.04 in 10.0 mi North 3.5 mph - N/A   Scattered Clouds
3:54 PM 84.0 °F 83.3 °F 57.0 °F 40% 30.02 in 10.0 mi WSW 4.6 mph - N/A   Scattered Clouds
4:54 PM 82.0 °F 81.4 °F 55.0 °F 39% 30.02 in 10.0 mi NW 4.6 mph - N/A   Scattered Clouds
5:54 PM 81.0 °F 81.1 °F 57.9 °F 45% 30.02 in 10.0 mi Calm Calm - N/A   Scattered Clouds
6:54 PM 75.0 °F - 61.0 °F 62% 30.03 in 10.0 mi Calm Calm - N/A   Scattered Clouds
7:54 PM 70.0 °F - 62.1 °F 76% 30.04 in 10.0 mi Calm Calm - N/A   Partly Cloudy
8:54 PM 66.9 °F - 61.0 °F 81% 30.04 in 10.0 mi Calm Calm - N/A   Partly Cloudy
9:54 PM 68.0 °F - 61.0 °F 78% 30.05 in 10.0 mi Calm Calm - N/A   Clear
10:54 PM 66.0 °F - 59.0 °F 78% 30.06 in 10.0 mi Calm Calm - N/A   Clear
11:54 PM 64.0 °F - 57.9 °F 80% 30.06 in 10.0 mi Calm Calm - N/A   Clear